Location: Duncanville
(32.6518°N, 96.9083°W)
Time: 10:44:41
(UTC+00:00)

Cosmos 1869 - Pass Details

Date: 11 February 2026
Orbit: 447 x 473 km, 82.5° (Epoch: 7 March)

Event Time Altitude Azimuth Distance (km) Brightness Sun altitude
Rises 12:27:16 0° 184° (S) 2,507 6.8 -10.5°
Reaches altitude 10° 12:29:21 10° 184° (S) 1,631 5.8 -10.0°
Maximum altitude 12:32:54 86° 97° (E) 476 3.0 -9.3°
Drops below altitude 10° 12:36:28 10° 7° (N) 1,627 5.7 -8.6°
Sets 12:38:33 0° 7° (N) 2,502 6.6 -8.1°
